Tracking 22879 objects as of 20-Apr-2021
HD Live streaming from Space Station
objects crossing your sky now

GAOFEN 9 03

Track GAOFEN 9 03 now!
10-day predictions


NORAD ID: 45794
Int'l Code: 2020-039A
Perigee: 495.0 km
Apogee: 509.2 km
Inclination: 97.3 °
Period: 94.5 minutes
Semi major axis: 6873 km
RCS: Unknown
Launch date: June 17, 2020
Source: People's Republic of China (PRC)
Launch site: Jiuquan Satellite Launch Center, China (JSC)
aabbcc
Your satellite tracking list
Your tracking list is empty




NASA's NSSDC Master Catalog

Two Line Element Set (TLE):
1 45794U 20039A   21109.92842372  .00001352  00000-0  59369-4 0  9990
2 45794  97.3487 230.7645 0010324 288.9092 207.5865 15.23597384 46688
Source of the keplerian elements: AFSPC